Wind_Speed
11 11 10 9 9 9 9 8 8 7 8 8 8 7 7 7 7 7 7 7 8 8 8 9 8 8 9 9 10 10 10 11 10 10 10 10 11 11 12 12 12 11 12
10 10 10 10 10 9 9 9 8 8 8 8 8 8 8 8 8 8 9 9 9 9 9 9 9 9 9 10 10 10 10 10 9 10 10 11 11 12 13 13 13 12 12
10 10 10 10 10 10 10 9 9 9 9 9 9 8 8 8 8 9 9 9 9 9 9 9 9 9 8 9 9 9 9 9 10 10 11 11 11 12 13 13 13 13 13
9 10 10 10 11 10 11 11 10 10 9 9 9 9 9 9 9 9 9 9 9 9 9 9 9 9 9 10 10 9 10 10 10 11 11 11 12 12 12 13 13 13 13
9 9 9 10 10 10 11 10 10 10 10 9 9 10 9 9 9 10 10 9 9 10 10 10 10 9 10 10 10 10 10 10 11 12 12 12 12 12 12 13 13 13 13
9 10 10 10 10 10 10 10 11 11 11 11 10 10 9 10 10 10 10 10 9 10 10 10 10 10 11 11 11 10 10 11 11 11 12 12 13 13 13 13 13 14 14
10 10 10 10 10 11 11 11 12 12 12 11 11 10 10 10 11 10 11 10 10 10 10 10 11 11 11 12 11 11 11 11 12 12 12 13 13 13 13 13 14 15 15
10 10 11 11 11 11 12 11 11 12 12 12 11 11 10 10 10 10 10 10 10 10 10 10 11 11 11 11 12 12 11 11 12 12 12 12 13 13 14 14 14 15 15
11 11 11 11 11 11 11 11 11 11 12 12 12 12 12 11 11 10 10 10 10 11 11 11 10 11 11 12 12 12 12 12 11 11 12 12 12 13 13 13 14 13 14
11 11 11 11 11 11 10 10 11 11 12 12 12 12 12 12 12 11 11 11 11 11 11 11 11 11 12 12 12 12 12 12 12 12 13 13 12 13 13 13 13 13 13
12 12 12 12 11 11 11 10 11 11 11 11 11 12 12 12 12 12 12 11 11 11 11 11 11 11 11 11 11 12 12 12 12 12 13 13 13 13 13 13 13 13 13
13 12 12 13 12 12 11 11 11 12 12 12 12 12 12 12 12 12 12 12 12 12 11 12 12 11 11 11 11 12 13 13 13 13 13 13 13 13 13 13 13 13 13
13 13 13 13 13 12 12 12 12 12 12 12 12 12 12 12 12 12 12 12 13 12 12 12 12 12 12 12 12 13 13 13 13 13 13 14 14 13 13 13 14 14 14
13 13 13 14 13 13 13 13 13 12 13 13 13 13 13 13 14 14 13 13 14 14 13 13 13 13 13 13 13 13 13 12 13 13 13 13 13 13 14 14 14 15 15
15 15 15 15 14 14 14 14 14 14 14 14 14 14 14 14 15 15 15 15 15 15 15 15 14 14 14 14 14 14 14 14 13 13 13 13 13 13 14 15 15 15 16
15 15 14 15 15 15 15 15 15 15 15 15 15 15 15 15 15 16 16 16 16 16 16 15 15 15 16 16 16 15 15 14 14 13 13 13 13 14 14 15 15 15 16
16 16 16 16 16 16 17 17 17 17 17 17 16 16 16 17 17 17 16 17 17 17 16 16 17 17 16 16 16 16 15 15 15 14 13 13 13 14 14 14 14 15 15
18 18 18 18 18 19 19 19 19 18 18 18 18 18 18 18 18 18 18 18 17 17 17 16 17 17 16 16 15 16 16 16 15 15 14 14 14 15 15 15 15 16 16
19 19 19 20 21 20 20 20 20 20 20 20 20 19 19 18 19 19 19 19 19 19 19 18 18 18 18 17 17 17 17 17 16 16 16 16 16 16 16 17 17 18 18
21 21 22 22 23 22 21 21 21 22 22 22 22 22 21 21 20 19 19 20 20 20 20 20 20 20 19 19 19 19 18 18 18 18 18 18 18 18 18 18 19 19 19
22 22 23 23 23 23 23 23 23 22 23 23 23 23 23 22 22 21 21 21 22 22 22 22 22 21 21 21 21 21 20 20 20 20 20 20 20 20 20 20 20 20 20
23 23 23 24 24 24 24 24 24 24 24 24 24 25 24 25 24 24 24 24 24 24 24 24 24 23 23 23 23 23 23 23 23 23 22 22 22 22 22 22 22 22 22
24 25 25 24 24 24 24 25 26 26 26 26 26 26 26 26 27 26 26 26 25 25 25 25 25 25 25 25 25 25 25 25 24 25 25 25 25 24 24 23 23 23 23
25 25 25 25 25 25 25 26 27 27 27 27 27 27 27 27 28 28 28 27 27 27 27 27 27 27 27 27 27 27 27 26 27 27 27 26 26 26 25 25 25 25 24
25 25 26 26 27 27 27 27 27 27 27 27 27 28 28 28 28 29 30 29 29 29 29 28 28 28 29 29 29 29 29 28 28 28 28 28 28 27 27 27 26 26 26
25 26 26 27 27 28 28 27 27 28 28 28 28 29 29 29 29 29 30 30 29 30 30 30 29 30 30 30 30 29 29 29 29 29 29 29 29 29 29 29 29 28 28
Wind_Direction
274 272 269 264 261 260 260 261 263 263 265 269 271 273 267 265 266 269 271 269 266 268 274 275 270 272 271 271 270 270 265 258 257 257 254 252 250 245 243 243 244 242 243
274 271 266 259 256 255 256 257 256 255 260 266 268 268 269 268 266 266 267 270 269 269 272 275 270 271 272 275 274 273 268 261 256 255 255 253 249 247 245 244 244 243 243
272 268 265 257 256 254 254 253 254 255 259 265 266 267 270 271 270 267 267 271 269 268 269 273 274 272 274 276 274 270 266 262 256 255 254 251 250 250 247 244 245 245 243
268 266 265 261 259 255 253 253 255 258 261 263 265 267 268 270 273 271 269 269 269 270 271 273 275 273 274 274 272 269 265 263 260 258 256 252 251 251 248 246 245 243 240
270 265 266 267 261 255 253 254 256 258 261 264 266 267 269 269 272 273 272 271 272 269 272 274 278 276 277 275 271 270 265 264 261 261 259 258 256 256 254 252 250 247 242
272 268 268 267 263 258 256 258 259 261 263 264 265 265 267 268 268 270 273 275 275 273 273 274 276 275 273 273 272 269 267 264 262 263 260 261 260 257 256 254 250 247 245
271 267 266 265 263 262 260 259 262 262 263 265 266 265 265 268 267 268 271 275 277 277 279 277 276 273 271 272 273 273 270 267 265 263 261 261 258 256 253 251 251 250 250
270 268 267 265 263 264 262 263 264 263 262 265 266 265 265 266 267 269 273 275 276 278 279 279 276 274 273 273 273 270 271 271 268 266 264 260 258 257 254 250 249 249 249
264 266 269 266 263 263 262 262 264 263 263 265 265 264 265 266 266 268 270 273 277 279 280 281 279 276 275 274 271 268 271 273 270 270 265 260 260 259 254 251 250 250 251
262 262 263 263 265 264 263 265 267 266 266 265 264 264 264 264 265 266 268 273 276 277 279 281 280 277 274 274 272 271 273 276 274 274 268 265 262 260 256 253 252 251 252
262 261 263 262 262 262 261 264 267 267 266 265 265 265 265 263 264 267 267 270 273 275 278 278 279 279 278 277 273 274 275 277 274 275 271 266 263 262 259 257 254 252 252
265 263 263 262 258 257 260 263 265 267 266 265 265 265 264 262 262 266 267 267 269 273 275 279 281 280 282 282 279 278 277 279 276 276 271 265 263 261 259 257 256 254 252
265 265 262 260 258 260 262 264 265 265 264 265 263 264 264 264 263 265 266 266 267 269 273 277 282 282 280 281 280 280 280 281 278 278 271 264 262 260 258 257 256 258 253
267 264 261 261 261 262 263 262 264 265 267 266 263 265 266 266 264 266 266 266 268 269 271 274 278 280 278 281 281 279 280 281 282 280 274 266 261 259 258 258 258 258 253
266 266 263 260 260 261 262 263 263 264 267 267 266 266 265 266 267 267 268 268 268 269 267 269 272 275 276 279 280 279 279 279 280 280 276 267 262 260 260 260 260 258 252
264 267 267 264 261 261 261 262 263 264 266 267 267 266 267 269 270 269 268 268 269 269 269 271 272 274 274 274 276 277 277 278 278 277 274 270 266 264 263 263 262 257 255
262 263 264 263 263 261 260 261 263 263 264 266 267 269 269 270 269 268 267 268 269 269 271 273 274 275 276 276 274 275 275 275 274 274 273 270 267 266 264 263 265 261 260
261 262 263 263 263 264 263 261 262 262 263 264 266 267 269 270 269 267 267 268 268 269 271 273 275 279 279 278 276 276 276 276 273 272 273 272 270 269 267 263 265 262 263
261 261 262 263 264 266 266 263 262 262 262 263 264 265 267 269 270 268 266 267 267 267 268 270 272 276 278 278 277 277 277 277 273 271 272 272 271 271 269 267 266 266 264
263 263 262 264 265 266 265 265 264 262 261 262 264 265 266 268 268 267 267 267 266 266 267 268 270 272 274 275 275 274 274 274 272 272 272 272 272 272 270 269 268 269 267
266 266 265 264 265 265 264 265 264 262 261 262 264 264 265 267 268 268 267 267 267 267 268 269 270 272 273 274 272 271 271 270 271 271 272 273 272 271 271 270 270 269 269
269 268 268 264 265 266 265 266 265 265 263 263 263 265 265 264 265 267 267 267 267 267 268 269 270 271 273 273 273 271 270 269 269 270 270 271 272 271 271 270 270 269 268
271 271 272 268 266 265 266 267 267 266 265 265 265 264 264 263 263 264 266 267 268 269 269 269 269 271 271 272 271 271 270 268 268 269 268 268 268 269 270 270 269 269 268
273 273 272 271 268 266 266 266 267 266 265 265 265 265 265 264 263 264 264 265 267 268 269 269 268 269 269 270 271 270 269 268 268 268 268 269 269 269 269 269 269 269 268
276 276 274 273 271 269 267 268 268 266 266 265 265 265 265 265 264 264 263 264 265 267 268 269 269 270 270 270 271 271 269 267 268 269 268 268 268 269 269 269 269 269 268
276 276 276 276 275 273 271 269 269 267 267 266 266 266 266 266 266 265 264 264 265 267 269 270 270 270 270 270 270 271 270 268 268 268 268 268 268 270 269 270 270 270 270
Height
5845 5845 5845 5845 5845 5845 5846 5846 5846 5846 5845 5845 5845 5845 5845 5845 5845 5845 5845 5844 5844 5844 5843 5842 5842 5842 5841 5841 5841 5840 5840 5839 5839 5840 5840 5840 5840 5840 5841 5841 5842 5842 5843
5842 5842 5842 5842 5842 5843 5843 5843 5844 5844 5843 5843 5843 5843 5843 5843 5843 5843 5843 5842 5842 5842 5841 5841 5840 5840 5839 5839 5838 5838 5837 5837 5837 5837 5837 5837 5838 5838 5838 5839 5839 5840 5840
5839 5839 5839 5839 5839 5840 5840 5841 5841 5841 5841 5841 5841 5841 5841 5841 5841 5841 5840 5840 5840 5839 5839 5838 5838 5837 5837 5836 5836 5835 5835 5835 5835 5835 5835 5835 5835 5835 5835 5836 5837 5837 5838
5836 5836 5836 5836 5836 5837 5837 5838 5838 5839 5839 5839 5839 5839 5839 5839 5839 5838 5838 5838 5838 5837 5837 5836 5835 5835 5834 5834 5833 5833 5832 5832 5832 5832 5832 5832 5832 5832 5833 5833 5833 5834 5835
5833 5833 5833 5833 5833 5834 5835 5835 5836 5836 5837 5837 5837 5837 5837 5836 5836 5836 5836 5835 5835 5835 5834 5834 5833 5832 5832 5831 5830 5830 5829 5829 5829 5829 5829 5829 5829 5829 5829 5830 5830 5831 5832
5830 5830 5830 5830 5831 5832 5832 5833 5833 5833 5834 5834 5834 5834 5834 5834 5834 5833 5833 5833 5833 5832 5832 5831 5830 5830 5829 5828 5827 5827 5826 5826 5826 5825 5825 5825 5825 5826 5826 5826 5827 5828 5828
5827 5827 5827 5828 5828 5829 5829 5830 5830 5831 5831 5831 5832 5832 5832 5831 5831 5831 5831 5830 5830 5829 5829 5828 5828 5827 5826 5825 5825 5824 5823 5823 5822 5822 5822 5822 5821 5822 5822 5823 5824 5824 5825
5824 5824 5824 5825 5825 5825 5826 5826 5827 5827 5828 5828 5829 5829 5829 5829 5828 5828 5828 5827 5827 5826 5826 5825 5825 5824 5823 5822 5821 5821 5820 5820 5819 5819 5818 5818 5818 5818 5819 5819 5820 5821 5821
5821 5821 5821 5821 5822 5822 5822 5823 5824 5824 5825 5825 5825 5826 5825 5825 5825 5825 5825 5825 5824 5823 5823 5822 5822 5821 5820 5819 5818 5818 5817 5817 5816 5815 5815 5815 5815 5815 5815 5816 5816 5817 5817
5818 5818 5818 5818 5819 5819 5820 5820 5821 5821 5822 5822 5822 5822 5822 5822 5822 5823 5822 5821 5821 5820 5820 5819 5818 5817 5817 5816 5815 5814 5814 5813 5812 5812 5811 5811 5811 5811 5812 5812 5813 5813 5814
5815 5815 5815 5815 5816 5816 5817 5817 5818 5818 5818 5818 5819 5819 5819 5819 5819 5819 5819 5819 5818 5818 5817 5816 5815 5814 5814 5813 5812 5811 5810 5809 5809 5808 5807 5807 5807 5808 5808 5809 5809 5810 5810
5811 5811 5812 5812 5812 5813 5814 5814 5814 5815 5815 5815 5815 5815 5815 5815 5816 5816 5815 5815 5815 5815 5814 5813 5812 5811 5810 5810 5809 5808 5807 5806 5805 5804 5803 5803 5803 5804 5804 5805 5805 5806 5806
5808 5808 5809 5809 5810 5810 5811 5811 5811 5811 5811 5811 5812 5812 5812 5812 5812 5812 5812 5811 5811 5811 5811 5810 5809 5808 5807 5806 5805 5805 5803 5802 5801 5800 5799 5799 5799 5800 5800 5801 5801 5802 5802
5805 5805 5806 5806 5806 5807 5807 5808 5808 5808 5808 5808 5808 5808 5808 5808 5808 5808 5808 5808 5808 5807 5807 5806 5805 5805 5804 5803 5802 5801 5800 5799 5797 5796 5794 5794 5795 5796 5796 5797 5798 5798 5798
5802 5802 5802 5803 5803 5803 5804 5804 5804 5804 5804 5804 5804 5804 5804 5804 5804 5804 5804 5804 5804 5803 5803 5802 5802 5801 5800 5799 5798 5797 5796 5795 5794 5792 5791 5791 5791 5792 5793 5793 5794 5794 5794
5797 5798 5798 5798 5799 5799 5800 5799 5800 5800 5800 5800 5800 5800 5800 5799 5799 5799 5799 5799 5799 5799 5798 5798 5797 5797 5796 5795 5794 5793 5792 5791 5790 5789 5788 5788 5788 5788 5789 5789 5789 5789 5790
5793 5793 5794 5794 5794 5794 5795 5795 5795 5795 5795 5795 5795 5795 5795 5795 5795 5794 5794 5794 5794 5794 5794 5793 5793 5792 5791 5791 5790 5789 5788 5787 5786 5786 5785 5785 5785 5785 5785 5785 5785 5785 5786
5788 5788 5788 5788 5789 5789 5789 5789 5789 5789 5790 5790 5790 5790 5790 5789 5789 5789 5789 5789 5789 5789 5789 5788 5788 5787 5787 5786 5785 5785 5784 5783 5782 5782 5782 5782 5781 5781 5781 5781 5781 5781 5781
5782 5783 5783 5783 5783 5783 5783 5783 5783 5784 5784 5784 5784 5784 5784 5784 5784 5784 5784 5784 5784 5784 5784 5783 5783 5782 5782 5781 5780 5780 5779 5779 5778 5777 5777 5777 5777 5777 5776 5776 5776 5776 5776
5776 5776 5776 5776 5776 5776 5776 5777 5777 5777 5777 5777 5778 5778 5778 5778 5778 5778 5778 5778 5778 5778 5778 5778 5777 5777 5776 5776 5775 5775 5774 5774 5773 5773 5772 5772 5772 5771 5771 5771 5771 5770 5771
5769 5769 5769 5769 5769 5769 5769 5770 5770 5770 5770 5771 5771 5771 5771 5771 5771 5771 5771 5771 5771 5771 5771 5771 5771 5771 5770 5770 5769 5769 5769 5768 5767 5767 5767 5767 5766 5766 5765 5765 5765 5764 5764
5763 5762 5762 5762 5762 5762 5762 5762 5763 5763 5763 5763 5764 5764 5764 5764 5764 5764 5764 5764 5764 5764 5765 5764 5764 5764 5763 5763 5763 5762 5762 5762 5762 5761 5761 5760 5759 5759 5759 5758 5758 5758 5758
5756 5755 5755 5754 5754 5754 5755 5755 5755 5755 5755 5756 5756 5756 5756 5756 5756 5756 5756 5756 5757 5757 5757 5757 5757 5757 5756 5756 5755 5755 5755 5755 5755 5754 5754 5753 5753 5752 5752 5752 5751 5751 5751
5748 5748 5747 5747 5747 5747 5747 5746 5746 5746 5747 5747 5747 5748 5748 5748 5748 5748 5748 5748 5748 5748 5749 5749 5749 5748 5748 5748 5747 5747 5746 5747 5747 5746 5746 5746 5746 5745 5745 5745 5744 5744 5744
5741 5740 5740 5739 5739 5739 5738 5738 5738 5738 5738 5738 5738 5739 5739 5739 5739 5739 5739 5740 5740 5740 5739 5739 5739 5739 5739 5739 5738 5738 5738 5738 5738 5738 5738 5738 5738 5737 5737 5737 5736 5736 5736
5733 5732 5732 5731 5730 5730 5729 5729 5729 5729 5729 5729 5729 5730 5730 5730 5730 5729 5729 5730 5730 5730 5730 5730 5730 5730 5730 5729 5729 5729 5729 5729 5729 5730 5729 5729 5729 5728 5729 5728 5728 5727 5727